Content
SEND FEEDBACK

Daily
Averages
Monthly
Summary
Mexico

PUERTO MORELOS, QUINTANA ROO


Home > North America > Mexico > Quintana Roo
Elevation: 20 feet     Latitude: 20 51N     Longitude: 086 52W

WEATHER
 
SELECT A DAY
Number of Records: 163,905;   Date Range: 1/1/95 - 8/10/14
 
SHARE

PRINT THIS DATA

[ ← Previous Day ]
WEATHER ALMANAC - OCTOBER 5, 2013
[ Next Day → ]
[ °C ]   °F
Weather ElementAverageHighLow
Temperature82.8 °F86 °F (10:48 am)78.8 °F (7:48 am)
Dewpoint76.8 °F77 °F (1:44 am)75.2 °F (6:43 am)
Humidity82.3 %94 % (7:48 am)70 % (3:45 pm)
Barometer29.92 in29.96 in (10:48 am)29.88 in (4:44 pm)
Wind Speed6.6 mph13.8 mph (1:40 pm)
Weather ElementAverage
Visibility7 mi
Wind DirectionESE (97.8 °)

Weather ElementTotal
Precipitation---
Cooling Degree Days17.4 (Base 65)
Growing Degree Days32.4 (Base 50)
Averaged from 23 records on October 5, 2013
WEATHER CONDITIONS BREAKOUT
WIND DIRECTION BREAKOUT
WEATHER BY HOUR - OCTOBER 5, 2013
[ °C ]   °F
Local TimeTemperatureDewpointHumidityBarometerVisibilityWind DirectionWind SpeedGust SpeedPrecipitationEventsConditions
1:44 AM80.6 °F77.0 °F89 %29.93 in7.0 miESE (110°)8.1 mphMostly Cloudy
2:43 AM80.6 °F77.0 °F89 %29.91 in7.0 miSE (130°)6.9 mphMostly Cloudy
3:46 AM80.6 °F77.0 °F89 %29.89 in7.0 miESE (120°)5.8 mphMostly Cloudy
4:45 AM80.6 °F77.0 °F89 %29.90 in7.0 miESE (120°)5.8 mphMostly Cloudy
5:44 AM80.6 °F77.0 °F89 %29.91 in7.0 miESE (110°)5.8 mphMostly Cloudy
6:43 AM80.6 °F75.2 °F84 %29.92 in7.0 miENE (60°)5.8 mphScattered Clouds
7:48 AM78.8 °F77.0 °F94 %29.93 in7.0 miCalmMostly Cloudy
8:42 AM84.2 °F77.0 °F79 %29.95 in7.0 miEast (90°)8.1 mphMostly Cloudy
9:46 AM84.2 °F77.0 °F79 %29.95 in7.0 miEast (100°)8.1 mphMostly Cloudy
10:48 AM86.0 °F77.0 °F74 %29.96 in7.0 miSE (140°)6.9 mphScattered Clouds
11:47 AM86.0 °F77.0 °F74 %29.95 in7.0 miENE (60°)10.4 mphScattered Clouds
12:47 PM86.0 °F77.0 °F74 %29.93 in7.0 miESE (110°)9.2 mphScattered Clouds
1:40 PM86.0 °F77.0 °F74 %29.91 in7.0 miEast (80°)13.8 mphMostly Cloudy
2:45 PM86.0 °F77.0 °F74 %29.89 in7.0 miESE (120°)8.1 mphScattered Clouds
3:45 PM86.0 °F75.2 °F70 %29.91 in7.0 miESE (120°)11.5 mphScattered Clouds
4:44 PM86.0 °F75.2 °F70 %29.88 in7.0 miESE (120°)6.9 mphScattered Clouds
5:44 PM84.2 °F77.0 °F79 %29.88 in7.0 miSE (130°)5.8 mphPartly Cloudy
6:42 PM82.4 °F77.0 °F84 %29.89 in7.0 miEast (100°)5.8 mphPartly Cloudy
7:42 PM82.4 °F77.0 °F84 %29.91 in7.0 miEast (100°)5.8 mphPartly Cloudy
8:41 PM82.4 °F77.0 °F84 %29.93 in7.0 miEast (100°)5.8 mphPartly Cloudy
9:46 PM80.6 °F77.0 °F89 %29.95 in7.0 miEast (100°)4.6 mphClear
10:43 PM80.6 °F77.0 °F89 %29.94 in7.0 miSE (130°)2.3 mphPartly Cloudy
11:41 PM78.8 °F77.0 °F94 %29.93 in7.0 miCalmPartly Cloudy
Hourly data recorded from MMUN, located miles away from Puerto Morelos, Quintana Roo







STORIES FROM OUR PARTNERS